Private Wetterstation Wechselburg
Wetterdaten: Samstag, 23.04.2011
Datum Zeit Temp. +2m Bodentemp. Temp.+5cm Temp. Wind Windchill X Diff Temp. Feuchte +2m Feuchte +5cm Sonnenschein Luftdruck Regen Wind Richtung Richtung Sonnenschein UV Taupunkt Windchill Windben
23.04.2011 00:00 13,7 C 17,4 C 11,6 C 12,5 C 10,2 C 0,0 C 69 % 77 % 0 % 1012,1 hPa 0,0 l/m 0,3 km/h (0 Bft) NO 45 0 min 0,0 UV-I 8,1 C 10,2 C 0,0 km/h (0 Bft)
23.04.2011 00:05 13,7 C 17,4 C 11,6 C 12,5 C 10,1 C 0,0 C 70 % 77 % 0 % 1012,1 hPa 0,0 l/m 0,2 km/h (0 Bft) NO 45 0 min 0,0 UV-I 8,3 C 10,1 C 0,0 km/h (0 Bft)
23.04.2011 00:10 13,4 C 17,4 C 11,5 C 12,3 C 10,0 C 0,0 C 70 % 78 % 0 % 1012,1 hPa 0,0 l/m 0,0 km/h (0 Bft) N-NW 337 0 min 0,0 UV-I 8,0 C 10,0 C 0,0 km/h (0 Bft)
23.04.2011 00:15 13,3 C 17,4 C 11,3 C 12,2 C 9,9 C 0,0 C 71 % 78 % 0 % 1012,1 hPa 0,0 l/m 0,2 km/h (0 Bft) S 180 0 min 0,0 UV-I 8,2 C 9,9 C 2,6 km/h (1 Bft)
23.04.2011 00:20 13,3 C 17,4 C 11,2 C 12,1 C 9,8 C 0,0 C 70 % 78 % 0 % 1012,1 hPa 0,0 l/m 0,2 km/h (0 Bft) S 180 0 min 0,0 UV-I 7,9 C 9,8 C 0,0 km/h (0 Bft)
23.04.2011 00:25 13,2 C 17,4 C 11,1 C 12,0 C 9,5 C 0,0 C 71 % 79 % 0 % 1012,1 hPa 0,0 l/m 0,3 km/h (0 Bft) O 90 0 min 0,0 UV-I 8,1 C 9,5 C 0,0 km/h (0 Bft)
23.04.2011 00:30 13,0 C 17,4 C 11,0 C 11,8 C 9,3 C 0,0 C 71 % 79 % 0 % 1012,1 hPa 0,0 l/m 0,2 km/h (0 Bft) O 90 0 min 0,0 UV-I 7,9 C 9,3 C 0,0 km/h (0 Bft)
23.04.2011 00:35 12,8 C 17,4 C 10,9 C 11,6 C 9,2 C 0,0 C 72 % 79 % 0 % 1012,1 hPa 0,0 l/m 0,0 km/h (0 Bft) O 90 0 min 0,0 UV-I 7,9 C 9,2 C 0,0 km/h (0 Bft)
23.04.2011 00:40 12,9 C 17,4 C 10,8 C 11,6 C 9,0 C 0,0 C 73 % 80 % 0 % 1012,1 hPa 0,0 l/m 0,2 km/h (0 Bft) SW 225 0 min 0,0 UV-I 8,2 C 9,0 C 1,9 km/h (1 Bft)
23.04.2011 00:45 12,8 C 17,3 C 10,6 C 11,5 C 8,9 C 0,0 C 72 % 80 % 0 % 1012,1 hPa 0,0 l/m 0,2 km/h (0 Bft) S 180 0 min 0,0 UV-I 7,9 C 8,9 C 0,0 km/h (0 Bft)
23.04.2011 00:50 12,7 C 17,4 C 10,5 C 11,4 C 8,7 C 0,0 C 72 % 79 % 0 % 1012,1 hPa 0,0 l/m 0,2 km/h (0 Bft) N-NO 22 0 min 0,0 UV-I 7,8 C 8,7 C 0,0 km/h (0 Bft)
23.04.2011 00:55 12,4 C 17,3 C 10,5 C 11,1 C 8,5 C 0,0 C 73 % 80 % 0 % 1012,1 hPa 0,0 l/m 0,0 km/h (0 Bft) N-NW 337 0 min 0,0 UV-I 7,7 C 8,5 C 0,0 km/h (0 Bft)
23.04.2011 01:00 12,5 C 17,3 C 10,4 C 11,1 C 8,4 C 0,0 C 74 % 81 % 0 % 1012,1 hPa 0,0 l/m 0,2 km/h (0 Bft) SW 225 0 min 0,0 UV-I 8,0 C 8,4 C 0,0 km/h (0 Bft)
23.04.2011 01:05 12,4 C 17,3 C 10,3 C 11,0 C 8,3 C 0,0 C 73 % 81 % 0 % 1012,1 hPa 0,0 l/m 0,2 km/h (0 Bft) SW 225 0 min 0,0 UV-I 7,7 C 8,3 C 2,7 km/h (1 Bft)
23.04.2011 01:10 12,3 C 17,3 C 10,2 C 11,0 C 8,4 C 0,0 C 73 % 81 % 0 % 1012,1 hPa 0,0 l/m 0,2 km/h (0 Bft) NW 315 0 min 0,0 UV-I 7,6 C 8,4 C 0,0 km/h (0 Bft)
23.04.2011 01:15 12,0 C 17,3 C 10,2 C 10,8 C 8,4 C 0,0 C 74 % 81 % 0 % 1012,9 hPa 0,0 l/m 0,0 km/h (0 Bft) NW 315 0 min 0,0 UV-I 7,5 C 8,4 C 0,0 km/h (0 Bft)
23.04.2011 01:20 12,0 C 17,2 C 10,1 C 10,8 C 8,5 C 0,0 C 74 % 81 % 0 % 1012,9 hPa 0,0 l/m 0,0 km/h (0 Bft) NW 315 0 min 0,0 UV-I 7,5 C 8,5 C 0,0 km/h (0 Bft)
23.04.2011 01:25 11,9 C 17,1 C 10,1 C 10,7 C 8,4 C 0,0 C 73 % 81 % 0 % 1012,9 hPa 0,0 l/m 0,0 km/h (0 Bft) NW 315 0 min 0,0 UV-I 7,2 C 8,4 C 0,0 km/h (0 Bft)
23.04.2011 01:30 12,0 C 17,1 C 10,1 C 10,8 C 8,4 C 0,0 C 74 % 81 % 0 % 1012,9 hPa 0,0 l/m 0,0 km/h (0 Bft) NW 315 0 min 0,0 UV-I 7,5 C 8,4 C 0,0 km/h (0 Bft)
23.04.2011 01:35 12,0 C 17,1 C 9,9 C 10,8 C 8,3 C 0,0 C 74 % 81 % 0 % 1012,1 hPa 0,0 l/m 0,3 km/h (0 Bft) S 180 0 min 0,0 UV-I 7,5 C 8,3 C 0,0 km/h (0 Bft)
23.04.2011 01:40 11,9 C 17,1 C 9,9 C 10,7 C 8,2 C 0,0 C 73 % 81 % 0 % 1012,1 hPa 0,0 l/m 0,3 km/h (0 Bft) NW 315 0 min 0,0 UV-I 7,2 C 8,2 C 0,0 km/h (0 Bft)
23.04.2011 01:45 11,9 C 17,1 C 9,8 C 10,6 C 8,0 C 0,0 C 74 % 82 % 0 % 1012,1 hPa 0,0 l/m 0,3 km/h (0 Bft) S 180 0 min 0,0 UV-I 7,4 C 8,0 C 2,3 km/h (1 Bft)
23.04.2011 01:50 11,9 C 17,0 C 9,7 C 10,6 C 8,0 C 0,0 C 73 % 82 % 0 % 1012,1 hPa 0,0 l/m 0,5 km/h (0 Bft) S-SO 157 0 min 0,0 UV-I 7,2 C 8,0 C 0,0 km/h (0 Bft)
23.04.2011 01:55 11,6 C 17,2 C 9,6 C 10,4 C 7,9 C 0,0 C 74 % 82 % 0 % 1012,7 hPa 0,0 l/m 0,3 km/h (0 Bft) SW 225 0 min 0,0 UV-I 7,1 C 7,9 C 0,0 km/h (0 Bft)
23.04.2011 02:00 11,5 C 17,2 C 9,6 C 10,2 C 7,7 C 0,0 C 74 % 82 % 0 % 1012,7 hPa 0,0 l/m 0,0 km/h (0 Bft) O-NO 67 0 min 0,0 UV-I 7,0 C 7,7 C 0,0 km/h (0 Bft)
23.04.2011 02:05 11,3 C 17,1 C 9,5 C 10,1 C 7,7 C 0,0 C 75 % 82 % 0 % 1012,7 hPa 0,0 l/m 0,2 km/h (0 Bft) O-NO 67 0 min 0,0 UV-I 7,0 C 7,7 C 0,0 km/h (0 Bft)
23.04.2011 02:10 11,5 C 17,1 C 9,3 C 10,2 C 7,6 C 0,0 C 75 % 82 % 0 % 1012,7 hPa 0,0 l/m 0,2 km/h (0 Bft) W-SW 247 0 min 0,0 UV-I 7,2 C 7,6 C 0,0 km/h (0 Bft)
23.04.2011 02:15 11,5 C 17,1 C 9,3 C 10,2 C 7,5 C 0,0 C 75 % 83 % 0 % 1012,0 hPa 0,0 l/m 0,0 km/h (0 Bft) W-SW 247 0 min 0,0 UV-I 7,2 C 7,5 C 0,0 km/h (0 Bft)
23.04.2011 02:20 11,4 C 17,1 C 9,3 C 10,1 C 7,4 C 0,0 C 75 % 83 % 0 % 1012,0 hPa 0,0 l/m 0,0 km/h (0 Bft) W-SW 247 0 min 0,0 UV-I 7,1 C 7,4 C 0,0 km/h (0 Bft)
23.04.2011 02:25 11,2 C 17,1 C 9,2 C 9,9 C 7,4 C 0,0 C 75 % 83 % 0 % 1012,0 hPa 0,0 l/m 0,0 km/h (0 Bft) O-NO 67 0 min 0,0 UV-I 6,9 C 7,4 C 0,0 km/h (0 Bft)
23.04.2011 02:30 11,1 C 17,1 C 9,3 C 9,9 C 7,4 C 0,0 C 76 % 83 % 0 % 1012,0 hPa 0,0 l/m 0,0 km/h (0 Bft) O-NO 67 0 min 0,0 UV-I 7,0 C 7,4 C 0,0 km/h (0 Bft)
23.04.2011 02:35 11,0 C 17,1 C 9,2 C 9,8 C 7,3 C 0,0 C 76 % 83 % 0 % 1012,2 hPa 0,0 l/m 0,0 km/h (0 Bft) NO 45 0 min 0,0 UV-I 6,9 C 7,3 C 0,0 km/h (0 Bft)
23.04.2011 02:40 10,8 C 17,1 C 9,0 C 9,6 C 7,3 C 0,0 C 76 % 83 % 0 % 1012,2 hPa 0,0 l/m 0,2 km/h (0 Bft) NO 45 0 min 0,0 UV-I 6,7 C 7,3 C 0,0 km/h (0 Bft)
23.04.2011 02:45 10,8 C 17,1 C 9,1 C 9,6 C 7,2 C 0,0 C 76 % 84 % 0 % 1012,2 hPa 0,0 l/m 0,2 km/h (0 Bft) O-SO 112 0 min 0,0 UV-I 6,7 C 7,2 C 0,0 km/h (0 Bft)
23.04.2011 02:50 10,8 C 17,0 C 9,1 C 9,6 C 7,2 C 0,0 C 76 % 83 % 0 % 1012,2 hPa 0,0 l/m 0,0 km/h (0 Bft) O-SO 112 0 min 0,0 UV-I 6,7 C 7,2 C 0,0 km/h (0 Bft)
23.04.2011 02:55 10,8 C 17,0 C 9,0 C 9,6 C 7,2 C 0,0 C 77 % 84 % 0 % 1012,2 hPa 0,0 l/m 0,0 km/h (0 Bft) O-SO 112 0 min 0,0 UV-I 6,9 C 7,2 C 0,0 km/h (0 Bft)
23.04.2011 03:00 10,6 C 17,0 C 8,9 C 9,5 C 7,2 C 0,0 C 77 % 84 % 0 % 1012,2 hPa 0,0 l/m 0,0 km/h (0 Bft) O-SO 112 0 min 0,0 UV-I 6,7 C 7,2 C 0,0 km/h (0 Bft)
23.04.2011 03:05 10,5 C 17,0 C 8,8 C 9,4 C 7,2 C 0,0 C 77 % 84 % 0 % 1012,2 hPa 0,0 l/m 0,0 km/h (0 Bft) O-SO 112 0 min 0,0 UV-I 6,6 C 7,2 C 0,0 km/h (0 Bft)
23.04.2011 03:10 10,7 C 16,9 C 8,8 C 9,5 C 7,1 C 0,0 C 77 % 84 % 0 % 1012,2 hPa 0,0 l/m 0,0 km/h (0 Bft) O-SO 112 0 min 0,0 UV-I 6,8 C 7,1 C 0,0 km/h (0 Bft)
23.04.2011 03:15 10,4 C 16,9 C 8,7 C 9,2 C 6,9 C 0,0 C 76 % 84 % 0 % 1012,3 hPa 0,0 l/m 0,0 km/h (0 Bft) W-SW 247 0 min 0,0 UV-I 6,4 C 6,9 C 0,0 km/h (0 Bft)
23.04.2011 03:20 10,4 C 16,9 C 8,6 C 9,2 C 6,7 C 0,0 C 77 % 84 % 0 % 1012,3 hPa 0,0 l/m 0,0 km/h (0 Bft) SW 225 0 min 0,0 UV-I 6,5 C 6,7 C 0,0 km/h (0 Bft)
23.04.2011 03:25 10,4 C 16,8 C 8,6 C 9,1 C 6,6 C 0,0 C 76 % 84 % 0 % 1012,3 hPa 0,0 l/m 0,0 km/h (0 Bft) W-SW 247 0 min 0,0 UV-I 6,4 C 6,6 C 0,0 km/h (0 Bft)
23.04.2011 03:30 10,3 C 16,8 C 8,5 C 9,0 C 6,4 C 0,0 C 76 % 84 % 0 % 1012,3 hPa 0,0 l/m 0,0 km/h (0 Bft) W-SW 247 0 min 0,0 UV-I 6,3 C 6,4 C 0,0 km/h (0 Bft)
23.04.2011 03:35 10,1 C 16,8 C 8,5 C 8,9 C 6,4 C 0,0 C 76 % 84 % 0 % 1012,3 hPa 0,0 l/m 0,2 km/h (0 Bft) O-NO 67 0 min 0,0 UV-I 6,1 C 6,4 C 0,0 km/h (0 Bft)
23.04.2011 03:40 10,1 C 16,7 C 8,4 C 8,9 C 6,5 C 0,0 C 76 % 84 % 0 % 1012,3 hPa 0,0 l/m 0,2 km/h (0 Bft) O-NO 67 0 min 0,0 UV-I 6,1 C 6,5 C 0,0 km/h (0 Bft)
23.04.2011 03:45 9,9 C 16,7 C 8,2 C 8,8 C 6,5 C 0,0 C 76 % 83 % 0 % 1012,3 hPa 0,0 l/m 0,0 km/h (0 Bft) O-NO 67 0 min 0,0 UV-I 5,9 C 6,5 C 0,0 km/h (0 Bft)
23.04.2011 03:50 10,0 C 16,7 C 8,3 C 8,8 C 6,5 C 0,0 C 76 % 83 % 0 % 1012,3 hPa 0,0 l/m 0,2 km/h (0 Bft) O-NO 67 0 min 0,0 UV-I 6,0 C 6,5 C 1,6 km/h (1 Bft)
23.04.2011 03:55 9,8 C 16,6 C 8,1 C 8,7 C 6,6 C 0,0 C 75 % 83 % 0 % 1012,5 hPa 0,0 l/m 0,5 km/h (0 Bft) N-NO 22 0 min 0,0 UV-I 5,6 C 6,6 C 0,0 km/h (0 Bft)
23.04.2011 04:00 10,0 C 16,6 C 8,0 C 8,9 C 6,6 C 0,0 C 76 % 83 % 0 % 1012,5 hPa 0,0 l/m 0,5 km/h (0 Bft) S 180 0 min 0,0 UV-I 6,0 C 6,6 C 0,0 km/h (0 Bft)
23.04.2011 04:05 9,9 C 16,6 C 8,0 C 8,7 C 6,4 C 0,0 C 76 % 83 % 0 % 1012,5 hPa 0,0 l/m 0,2 km/h (0 Bft) S-SO 157 0 min 0,0 UV-I 5,9 C 6,4 C 0,0 km/h (0 Bft)
23.04.2011 04:10 9,7 C 16,5 C 7,9 C 8,6 C 6,3 C 0,0 C 75 % 83 % 0 % 1012,5 hPa 0,0 l/m 0,0 km/h (0 Bft) N-NO 22 0 min 0,0 UV-I 5,5 C 6,3 C 0,0 km/h (0 Bft)
23.04.2011 04:15 9,8 C 16,5 C 7,9 C 8,6 C 6,3 C 0,0 C 76 % 83 % 0 % 1012,3 hPa 0,0 l/m 0,0 km/h (0 Bft) W-SW 247 0 min 0,0 UV-I 5,8 C 6,3 C 0,0 km/h (0 Bft)
23.04.2011 04:20 9,9 C 16,5 C 7,9 C 8,6 C 6,1 C 0,0 C 76 % 83 % 0 % 1012,3 hPa 0,0 l/m 0,0 km/h (0 Bft) W-SW 247 0 min 0,0 UV-I 5,9 C 6,1 C 0,0 km/h (0 Bft)
23.04.2011 04:25 9,7 C 16,5 C 7,9 C 8,4 C 5,9 C 0,0 C 76 % 84 % 0 % 1012,3 hPa 0,0 l/m 0,0 km/h (0 Bft) W-SW 247 0 min 0,0 UV-I 5,7 C 5,9 C 0,0 km/h (0 Bft)
23.04.2011 04:30 9,7 C 16,5 C 7,7 C 8,4 C 5,7 C 0,0 C 76 % 84 % 0 % 1012,3 hPa 0,0 l/m 0,0 km/h (0 Bft) W-SW 247 0 min 0,0 UV-I 5,7 C 5,7 C 0,0 km/h (0 Bft)
23.04.2011 04:35 9,7 C 16,5 C 7,7 C 8,5 C 6,2 C 0,0 C 76 % 83 % 0 % 1012,6 hPa 0,0 l/m 0,5 km/h (0 Bft) O-NO 67 0 min 0,0 UV-I 5,7 C 6,2 C 0,0 km/h (0 Bft)
23.04.2011 04:40 9,7 C 16,4 C 7,7 C 8,6 C 6,5 C 0,0 C 76 % 84 % 0 % 1012,6 hPa 0,0 l/m 0,5 km/h (0 Bft) SW 225 0 min 0,0 UV-I 5,7 C 6,5 C 0,0 km/h (0 Bft)
23.04.2011 04:45 9,6 C 16,4 C 7,6 C 8,5 C 6,4 C 0,0 C 76 % 84 % 0 % 1012,6 hPa 0,0 l/m 0,0 km/h (0 Bft) N-NO 22 0 min 0,0 UV-I 5,6 C 6,4 C 0,0 km/h (0 Bft)
23.04.2011 04:50 9,6 C 16,3 C 7,6 C 8,6 C 6,5 C 0,0 C 76 % 84 % 0 % 1012,6 hPa 0,0 l/m 0,0 km/h (0 Bft) N-NO 22 0 min 0,0 UV-I 5,6 C 6,5 C 0,0 km/h (0 Bft)
23.04.2011 04:55 9,6 C 16,3 C 7,7 C 8,6 C 6,7 C 0,0 C 76 % 84 % 0 % 1012,4 hPa 0,0 l/m 0,0 km/h (0 Bft) N-NO 22 0 min 0,0 UV-I 5,6 C 6,7 C 0,0 km/h (0 Bft)
23.04.2011 05:00 9,7 C 16,3 C 7,7 C 8,7 C 6,7 C 0,0 C 76 % 84 % 0 % 1012,4 hPa 0,0 l/m 0,3 km/h (0 Bft) W-SW 247 0 min 0,0 UV-I 5,7 C 6,7 C 2,4 km/h (1 Bft)
23.04.2011 05:05 9,5 C 16,3 C 7,5 C 8,5 C 6,4 C 0,0 C 76 % 84 % 0 % 1012,4 hPa 0,0 l/m 0,3 km/h (0 Bft) SW 225 0 min 0,0 UV-I 5,5 C 6,4 C 3,1 km/h (1 Bft)
23.04.2011 05:10 9,5 C 16,4 C 7,4 C 8,4 C 6,1 C 0,0 C 77 % 85 % 0 % 1012,4 hPa 0,0 l/m 0,2 km/h (0 Bft) SW 225 0 min 0,0 UV-I 5,7 C 6,1 C 0,0 km/h (0 Bft)
23.04.2011 05:15 9,3 C 16,4 C 7,3 C 8,1 C 5,8 C 0,0 C 77 % 85 % 0 % 1012,2 hPa 0,0 l/m 0,0 km/h (0 Bft) S-SW 202 0 min 0,0 UV-I 5,5 C 5,8 C 0,0 km/h (0 Bft)
23.04.2011 05:20 9,1 C 16,3 C 7,3 C 8,0 C 5,7 C 0,0 C 78 % 85 % 0 % 1012,2 hPa 0,0 l/m 0,0 km/h (0 Bft) S-SO 157 0 min 0,0 UV-I 5,5 C 5,7 C 0,0 km/h (0 Bft)
23.04.2011 05:25 9,0 C 16,4 C 7,2 C 7,8 C 5,5 C 0,0 C 78 % 86 % 0 % 1012,2 hPa 0,0 l/m 0,2 km/h (0 Bft) S-SW 202 0 min 0,0 UV-I 5,4 C 5,5 C 0,0 km/h (0 Bft)
23.04.2011 05:30 9,0 C 16,4 C 7,1 C 7,8 C 5,5 C 0,0 C 78 % 85 % 0 % 1012,2 hPa 0,0 l/m 0,2 km/h (0 Bft) O-SO 112 0 min 0,0 UV-I 5,4 C 5,5 C 0,0 km/h (0 Bft)
23.04.2011 05:35 8,9 C 16,4 C 7,0 C 7,7 C 5,4 C 0,0 C 78 % 85 % 0 % 1012,4 hPa 0,0 l/m 0,2 km/h (0 Bft) S 180 0 min 0,0 UV-I 5,3 C 5,4 C 0,0 km/h (0 Bft)
23.04.2011 05:40 8,8 C 16,4 C 7,0 C 7,6 C 5,3 C 0,0 C 78 % 85 % 0 % 1012,4 hPa 0,0 l/m 0,2 km/h (0 Bft) S 180 0 min 0,0 UV-I 5,2 C 5,3 C 0,0 km/h (0 Bft)
23.04.2011 05:45 8,8 C 16,4 C 7,1 C 7,6 C 5,1 C 0,0 C 78 % 85 % 0 % 1012,4 hPa 0,0 l/m 0,0 km/h (0 Bft) S 180 0 min 0,0 UV-I 5,2 C 5,1 C 0,0 km/h (0 Bft)
23.04.2011 05:50 8,8 C 16,3 C 7,1 C 7,6 C 5,1 C 0,0 C 78 % 85 % 0 % 1012,4 hPa 0,0 l/m 0,0 km/h (0 Bft) S-SW 202 0 min 0,0 UV-I 5,2 C 5,1 C 0,0 km/h (0 Bft)
23.04.2011 05:55 8,7 C 16,3 C 7,1 C 7,5 C 5,0 C 0,0 C 78 % 85 % 0 % 1012,7 hPa 0,0 l/m 0,0 km/h (0 Bft) S-SW 202 0 min 0,0 UV-I 5,1 C 5,0 C 0,0 km/h (0 Bft)
23.04.2011 06:00 8,5 C 16,3 C 6,9 C 7,4 C 5,1 C 0,0 C 79 % 85 % 0 % 1012,7 hPa 0,0 l/m 0,0 km/h (0 Bft) O-SO 112 0 min 0,0 UV-I 5,1 C 5,1 C 0,0 km/h (0 Bft)
23.04.2011 06:05 8,4 C 16,3 C 6,8 C 7,3 C 5,2 C 0,0 C 79 % 85 % 0 % 1012,7 hPa 0,0 l/m 0,0 km/h (0 Bft) O-SO 112 0 min 0,0 UV-I 5,0 C 5,2 C 0,0 km/h (0 Bft)
23.04.2011 06:10 8,7 C 16,2 C 6,9 C 7,5 C 5,1 C 0,0 C 79 % 85 % 0 % 1012,7 hPa 0,0 l/m 0,0 km/h (0 Bft) S 180 0 min 0,0 UV-I 5,3 C 5,1 C 0,0 km/h (0 Bft)
23.04.2011 06:15 8,6 C 16,2 C 6,9 C 7,4 C 5,1 C 0,0 C 79 % 85 % 0 % 1012,5 hPa 0,0 l/m 0,0 km/h (0 Bft) S 180 0 min 0,0 UV-I 5,2 C 5,1 C 0,0 km/h (0 Bft)
23.04.2011 06:20 8,6 C 16,2 C 6,8 C 7,4 C 5,0 C 0,0 C 79 % 85 % 0 % 1012,5 hPa 0,0 l/m 0,0 km/h (0 Bft) S 180 0 min 0,0 UV-I 5,2 C 5,0 C 0,0 km/h (0 Bft)
23.04.2011 06:25 8,6 C 16,2 C 6,8 C 7,4 C 5,1 C 0,0 C 78 % 85 % 0 % 1012,5 hPa 0,0 l/m 0,0 km/h (0 Bft) S 180 0 min 0,0 UV-I 5,0 C 5,1 C 0,0 km/h (0 Bft)
23.04.2011 06:30 8,7 C 16,2 C 6,8 C 7,5 C 5,2 C 0,0 C 78 % 85 % 0 % 1012,5 hPa 0,0 l/m 0,0 km/h (0 Bft) O-SO 112 0 min 0,0 UV-I 5,1 C 5,2 C 0,0 km/h (0 Bft)
23.04.2011 06:35 10,1 C 16,1 C 7,1 C 8,6 C 5,5 C 0,0 C 77 % 86 % 0 % 1013,1 hPa 0,0 l/m 0,2 km/h (0 Bft) N-NW 337 0 min 0,0 UV-I 6,3 C 5,5 C 0,0 km/h (0 Bft)
23.04.2011 06:40 10,8 C 16,0 C 7,0 C 9,1 C 5,6 C 0,0 C 75 % 86 % 0 % 1013,1 hPa 0,0 l/m 0,2 km/h (0 Bft) N-NW 337 0 min 0,0 UV-I 6,5 C 5,6 C 0,0 km/h (0 Bft)
23.04.2011 06:45 12,1 C 15,9 C 7,2 C 10,0 C 5,9 C 0,0 C 71 % 86 % 0 % 1013,1 hPa 0,0 l/m 0,2 km/h (0 Bft) N-NW 337 0 min 0,0 UV-I 7,0 C 5,9 C 0,0 km/h (0 Bft)
23.04.2011 06:50 12,5 C 15,9 C 7,2 C 10,4 C 6,1 C 0,0 C 69 % 85 % 0 % 1013,1 hPa 0,0 l/m 0,0 km/h (0 Bft) N-NO 22 0 min 0,0 UV-I 7,0 C 6,1 C 0,0 km/h (0 Bft)
23.04.2011 06:55 13,7 C 15,8 C 7,2 C 11,4 C 6,9 C 0,0 C 66 % 86 % 0 % 1012,9 hPa 0,0 l/m 0,0 km/h (0 Bft) N-NW 337 0 min 0,0 UV-I 7,5 C 6,9 C 0,0 km/h (0 Bft)
23.04.2011 07:00 13,9 C 15,7 C 7,5 C 11,9 C 8,0 C 0,0 C 63 % 86 % 0 % 1012,9 hPa 0,0 l/m 0,5 km/h (0 Bft) NO 45 0 min 0,0 UV-I 7,0 C 8,0 C 2,7 km/h (1 Bft)
23.04.2011 07:05 14,7 C 15,7 C 7,7 C 13,0 C 9,7 C 0,0 C 62 % 85 % 0 % 1012,9 hPa 0,0 l/m 1,0 km/h (0 Bft) N-NO 22 0 min 0,0 UV-I 7,5 C 9,7 C 3,5 km/h (1 Bft)
23.04.2011 07:10 15,1 C 15,7 C 7,6 C 13,7 C 10,9 C 0,0 C 62 % 85 % 0 % 1012,9 hPa 0,0 l/m 0,6 km/h (0 Bft) O-NO 67 0 min 0,0 UV-I 7,9 C 10,9 C 0,0 km/h (0 Bft)
23.04.2011 07:15 14,9 C 15,6 C 7,6 C 14,1 C 12,4 C 0,0 C 61 % 85 % 0 % 1012,9 hPa 0,0 l/m 0,0 km/h (0 Bft) N-NO 22 0 min 0,0 UV-I 7,4 C 12,4 C 0,0 km/h (0 Bft)
23.04.2011 07:20 15,4 C 15,6 C 7,5 C 14,7 C 13,3 C 0,0 C 61 % 85 % 0 % 1012,9 hPa 0,0 l/m 0,0 km/h (0 Bft) N-NO 22 0 min 0,0 UV-I 7,9 C 13,3 C 0,0 km/h (0 Bft)
23.04.2011 07:25 15,2 C 15,6 C 7,6 C 14,8 C 14,0 C 0,0 C 60 % 86 % 0 % 1012,9 hPa 0,0 l/m 0,0 km/h (0 Bft) N-NO 22 0 min 0,0 UV-I 7,5 C 14,0 C 0,0 km/h (0 Bft)
23.04.2011 07:30 15,0 C 15,5 C 7,7 C 14,8 C 14,5 C 0,0 C 60 % 86 % 0 % 1012,9 hPa 0,0 l/m 0,0 km/h (0 Bft) N-NO 22 0 min 0,0 UV-I 7,3 C 14,5 C 0,0 km/h (0 Bft)
23.04.2011 07:35 14,8 C 15,5 C 7,9 C 15,2 C 15,2 C 0,4 C 62 % 86 % 11 % 1013,0 hPa 0,0 l/m 0,0 km/h (0 Bft) N-NO 22 0 min 0,0 UV-I 7,6 C 15,2 C 0,0 km/h (0 Bft)
23.04.2011 07:40 14,5 C 15,5 C 8,3 C 15,8 C 15,8 C 1,3 C 62 % 86 % 34 % 1013,0 hPa 0,0 l/m 0,0 km/h (0 Bft) NO 45 0 min 0,0 UV-I 7,3 C 15,8 C 0,0 km/h (0 Bft)
23.04.2011 07:45 16,3 C 15,5 C 8,6 C 16,5 C 16,5 C 0,2 C 59 % 85 % 5 % 1013,0 hPa 0,0 l/m 0,0 km/h (0 Bft) NW 315 0 min 0,0 UV-I 8,3 C 16,5 C 0,0 km/h (0 Bft)
23.04.2011 07:50 15,7 C 15,4 C 8,8 C 16,7 C 16,7 C 1,0 C 60 % 85 % 26 % 1013,0 hPa 0,0 l/m 0,0 km/h (0 Bft) N-NO 22 0 min 0,0 UV-I 8,0 C 16,7 C 1,9 km/h (1 Bft)
23.04.2011 07:55 15,7 C 15,3 C 9,3 C 17,0 C 17,0 C 1,3 C 60 % 85 % 34 % 1013,2 hPa 0,0 l/m 0,3 km/h (0 Bft) N-NO 22 0 min 0,1 UV-I 8,0 C 17,0 C 0,0 km/h (0 Bft)
23.04.2011 08:00 15,1 C 15,3 C 9,5 C 17,3 C 17,3 C 2,2 C 59 % 84 % 58 % 1013,2 hPa 0,0 l/m 0,6 km/h (0 Bft) NO 45 0 min 0,1 UV-I 7,1 C 17,3 C 0,0 km/h (0 Bft)
23.04.2011 08:05 14,6 C 15,3 C 10,0 C 17,6 C 17,6 C 3,0 C 61 % 82 % 79 % 1013,2 hPa 0,0 l/m 0,8 km/h (0 Bft) N 360 0 min 0,1 UV-I 7,2 C 17,6 C 3,9 km/h (1 Bft)
23.04.2011 08:10 14,7 C 15,3 C 10,1 C 18,0 C 18,0 C 3,3 C 62 % 81 % 87 % 1013,2 hPa 0,0 l/m 0,5 km/h (0 Bft) N 360 5 min 0,1 UV-I 7,5 C 18,0 C 0,0 km/h (0 Bft)
23.04.2011 08:15 14,8 C 15,3 C 10,4 C 18,3 C 18,3 C 3,5 C 62 % 81 % 92 % 1013,3 hPa 0,0 l/m 0,8 km/h (0 Bft) NO 45 5 min 0,1 UV-I 7,6 C 18,3 C 1,6 km/h (1 Bft)
23.04.2011 08:20 15,2 C 15,3 C 10,6 C 18,3 C 18,3 C 3,1 C 61 % 79 % 82 % 1013,3 hPa 0,0 l/m 1,3 km/h (1 Bft) N-NO 22 0 min 0,1 UV-I 7,7 C 18,3 C 0,0 km/h (0 Bft)
23.04.2011 08:25 14,4 C 15,3 C 10,9 C 18,7 C 18,7 C 4,3 C 63 % 79 % 100 % 1013,3 hPa 0,0 l/m 1,1 km/h (1 Bft) N-NO 22 5 min 0,2 UV-I 7,4 C 18,7 C 2,7 km/h (1 Bft)
23.04.2011 08:30 14,2 C 15,3 C 11,1 C 18,9 C 18,9 C 4,7 C 64 % 79 % 100 % 1013,3 hPa 0,0 l/m 1,1 km/h (1 Bft) N-NW 337 5 min 0,2 UV-I 7,5 C 18,9 C 3,9 km/h (1 Bft)
23.04.2011 08:35 14,3 C 15,2 C 11,3 C 19,0 C 19,0 C 4,7 C 64 % 78 % 100 % 1013,4 hPa 0,0 l/m 1,8 km/h (1 Bft) N-NW 337 5 min 0,3 UV-I 7,6 C 19,0 C 5,1 km/h (1 Bft)
23.04.2011 08:40 14,3 C 15,3 C 11,2 C 19,3 C 19,3 C 5,0 C 65 % 79 % 100 % 1013,4 hPa 0,0 l/m 1,9 km/h (1 Bft) N-NW 337 5 min 0,3 UV-I 7,8 C 19,3 C 4,2 km/h (1 Bft)
23.04.2011 08:45 14,3 C 15,2 C 11,4 C 19,2 C 19,2 C 4,9 C 65 % 78 % 100 % 1013,4 hPa 0,0 l/m 2,3 km/h (1 Bft) N-NO 22 5 min 0,3 UV-I 7,8 C 19,2 C 2,9 km/h (1 Bft)
23.04.2011 08:50 14,3 C 15,2 C 11,7 C 19,4 C 19,4 C 5,1 C 66 % 78 % 100 % 1013,4 hPa 0,0 l/m 2,4 km/h (1 Bft) NO 45 5 min 0,3 UV-I 8,0 C 19,4 C 1,8 km/h (1 Bft)
23.04.2011 08:55 14,3 C 15,2 C 12,0 C 19,9 C 19,9 C 5,6 C 66 % 78 % 100 % 1013,6 hPa 0,0 l/m 1,4 km/h (1 Bft) N-NW 337 5 min 0,4 UV-I 8,0 C 19,9 C 0,0 km/h (0 Bft)
23.04.2011 09:00 14,4 C 15,2 C 12,1 C 20,3 C 20,3 C 5,9 C 66 % 77 % 100 % 1013,6 hPa 0,0 l/m 1,6 km/h (1 Bft) O-NO 67 5 min 0,4 UV-I 8,1 C 20,3 C 1,9 km/h (1 Bft)
23.04.2011 09:05 14,4 C 15,1 C 12,5 C 20,6 C 20,6 C 6,2 C 66 % 77 % 100 % 1013,6 hPa 0,0 l/m 1,4 km/h (1 Bft) W 270 5 min 0,5 UV-I 8,1 C 20,6 C 0,0 km/h (0 Bft)
23.04.2011 09:10 14,7 C 15,2 C 12,8 C 20,7 C 20,7 C 6,0 C 67 % 76 % 100 % 1013,6 hPa 0,0 l/m 1,8 km/h (1 Bft) NW 315 5 min 0,5 UV-I 8,6 C 20,7 C 2,6 km/h (1 Bft)
23.04.2011 09:15 14,7 C 15,1 C 13,6 C 21,1 C 21,1 C 6,4 C 67 % 76 % 100 % 1013,4 hPa 0,0 l/m 1,6 km/h (1 Bft) O-NO 67 5 min 0,5 UV-I 8,6 C 21,1 C 3,7 km/h (1 Bft)
23.04.2011 09:20 14,8 C 15,1 C 14,1 C 20,5 C 20,5 C 5,7 C 67 % 74 % 100 % 1013,4 hPa 0,0 l/m 1,3 km/h (1 Bft) NW 315 5 min 0,5 UV-I 8,7 C 20,5 C 5,5 km/h (1 Bft)
23.04.2011 09:25 14,9 C 15,2 C 14,7 C 19,4 C 19,4 C 4,5 C 67 % 72 % 100 % 1013,4 hPa 0,0 l/m 1,3 km/h (1 Bft) NO 45 5 min 0,5 UV-I 8,8 C 19,4 C 3,5 km/h (1 Bft)
23.04.2011 09:30 15,1 C 15,1 C 14,8 C 18,7 C 18,7 C 3,6 C 67 % 72 % 95 % 1013,4 hPa 0,0 l/m 1,3 km/h (1 Bft) N-NO 22 5 min 0,5 UV-I 9,0 C 18,7 C 0,0 km/h (0 Bft)
23.04.2011 09:35 15,2 C 15,1 C 15,3 C 17,8 C 17,8 C 2,6 C 67 % 71 % 68 % 1013,5 hPa 0,0 l/m 2,1 km/h (1 Bft) NO 45 0 min 0,5 UV-I 9,1 C 17,8 C 6,1 km/h (2 Bft)
23.04.2011 09:40 15,4 C 15,1 C 15,9 C 17,6 C 17,6 C 2,2 C 67 % 69 % 58 % 1013,5 hPa 0,0 l/m 1,9 km/h (1 Bft) N 360 0 min 0,5 UV-I 9,3 C 17,6 C 1,8 km/h (1 Bft)
23.04.2011 09:45 15,6 C 15,1 C 15,9 C 17,6 C 17,6 C 2,0 C 66 % 68 % 53 % 1013,5 hPa 0,0 l/m 1,8 km/h (1 Bft) O-NO 67 0 min 0,6 UV-I 9,3 C 17,6 C 1,8 km/h (1 Bft)
23.04.2011 09:50 15,7 C 15,1 C 16,0 C 17,4 C 17,4 C 1,7 C 66 % 69 % 45 % 1013,5 hPa 0,0 l/m 1,9 km/h (1 Bft) O 90 0 min 0,6 UV-I 9,4 C 17,4 C 7,7 km/h (2 Bft)
23.04.2011 09:55 15,9 C 15,1 C 16,0 C 17,6 C 17,6 C 1,7 C 66 % 70 % 45 % 1012,9 hPa 0,0 l/m 2,1 km/h (1 Bft) S-SO 157 0 min 0,7 UV-I 9,6 C 17,6 C 2,7 km/h (1 Bft)
23.04.2011 10:00 16,1 C 15,1 C 16,4 C 18,1 C 18,1 C 2,0 C 66 % 68 % 53 % 1012,9 hPa 0,0 l/m 2,4 km/h (1 Bft) N-NW 337 0 min 0,7 UV-I 9,7 C 18,1 C 3,2 km/h (1 Bft)
23.04.2011 10:05 16,2 C 15,1 C 17,0 C 18,3 C 18,3 C 2,1 C 65 % 66 % 55 % 1012,9 hPa 0,0 l/m 1,6 km/h (1 Bft) NO 45 0 min 0,7 UV-I 9,6 C 18,3 C 2,9 km/h (1 Bft)
23.04.2011 10:10 16,4 C 15,1 C 17,7 C 18,3 C 18,3 C 1,9 C 64 % 64 % 50 % 1012,9 hPa 0,0 l/m 1,1 km/h (1 Bft) N-NO 22 0 min 0,7 UV-I 9,6 C 18,3 C 1,9 km/h (1 Bft)
23.04.2011 10:15 16,8 C 15,2 C 18,1 C 19,0 C 19,0 C 2,2 C 63 % 64 % 58 % 1013,2 hPa 0,0 l/m 2,1 km/h (1 Bft) NO 45 0 min 0,8 UV-I 9,7 C 19,0 C 2,3 km/h (1 Bft)
23.04.2011 10:20 17,1 C 15,2 C 18,5 C 19,4 C 19,4 C 2,3 C 63 % 61 % 61 % 1013,2 hPa 0,0 l/m 2,4 km/h (1 Bft) NW 315 0 min 0,8 UV-I 10,0 C 19,4 C 7,6 km/h (2 Bft)
23.04.2011 10:25 17,3 C 15,2 C 18,4 C 19,2 C 19,2 C 1,9 C 62 % 62 % 50 % 1013,2 hPa 0,0 l/m 2,4 km/h (1 Bft) O-NO 67 0 min 0,9 UV-I 9,9 C 19,2 C 0,0 km/h (0 Bft)
23.04.2011 10:30 17,3 C 15,1 C 18,3 C 19,2 C 19,2 C 1,9 C 62 % 62 % 50 % 1013,2 hPa 0,0 l/m 2,1 km/h (1 Bft) W-NW 292 0 min 0,9 UV-I 9,9 C 19,2 C 5,8 km/h (2 Bft)
23.04.2011 10:35 17,7 C 15,1 C 18,1 C 19,1 C 19,1 C 1,4 C 61 % 62 % 37 % 1013,4 hPa 0,0 l/m 1,6 km/h (1 Bft) W 270 0 min 1,0 UV-I 10,1 C 19,1 C 2,9 km/h (1 Bft)
23.04.2011 10:40 17,9 C 15,1 C 18,0 C 19,1 C 19,1 C 1,2 C 61 % 63 % 32 % 1013,4 hPa 0,0 l/m 1,9 km/h (1 Bft) NW 315 0 min 1,0 UV-I 10,3 C 19,1 C 2,7 km/h (1 Bft)
23.04.2011 10:45 18,0 C 15,1 C 18,0 C 19,1 C 19,1 C 1,1 C 61 % 63 % 29 % 1013,4 hPa 0,0 l/m 2,3 km/h (1 Bft) N 360 0 min 1,0 UV-I 10,4 C 19,1 C 1,8 km/h (1 Bft)
23.04.2011 10:50 18,2 C 15,2 C 18,0 C 19,2 C 19,2 C 1,0 C 60 % 63 % 26 % 1013,4 hPa 0,0 l/m 2,4 km/h (1 Bft) O 90 0 min 1,0 UV-I 10,3 C 19,2 C 1,9 km/h (1 Bft)
23.04.2011 10:55 18,4 C 15,2 C 17,9 C 19,2 C 19,2 C 0,8 C 60 % 64 % 21 % 1013,4 hPa 0,0 l/m 2,1 km/h (1 Bft) NW 315 0 min 1,0 UV-I 10,5 C 19,2 C 3,2 km/h (1 Bft)
23.04.2011 11:00 18,4 C 15,1 C 18,1 C 19,3 C 19,3 C 0,9 C 60 % 63 % 24 % 1013,4 hPa 0,0 l/m 2,3 km/h (1 Bft) NW 315 0 min 1,0 UV-I 10,5 C 19,3 C 1,9 km/h (1 Bft)
23.04.2011 11:05 18,6 C 15,1 C 18,1 C 19,4 C 19,4 C 0,8 C 60 % 63 % 21 % 1013,4 hPa 0,0 l/m 2,1 km/h (1 Bft) N-NO 22 0 min 1,0 UV-I 10,7 C 19,4 C 4,2 km/h (1 Bft)
23.04.2011 11:10 18,6 C 15,1 C 18,3 C 19,6 C 19,6 C 1,0 C 60 % 62 % 26 % 1013,4 hPa 0,0 l/m 2,6 km/h (1 Bft) O-NO 67 0 min 1,0 UV-I 10,7 C 19,6 C 8,5 km/h (2 Bft)
23.04.2011 11:15 18,9 C 15,2 C 18,3 C 19,9 C 19,9 C 1,0 C 60 % 63 % 26 % 1013,1 hPa 0,0 l/m 2,9 km/h (1 Bft) N-NO 22 0 min 1,1 UV-I 11,0 C 19,9 C 4,0 km/h (1 Bft)
23.04.2011 11:20 19,1 C 15,2 C 18,6 C 20,1 C 20,1 C 1,0 C 59 % 63 % 26 % 1013,1 hPa 0,0 l/m 2,7 km/h (1 Bft) N-NO 22 0 min 1,1 UV-I 10,9 C 20,1 C 4,5 km/h (1 Bft)
23.04.2011 11:25 19,5 C 15,3 C 18,7 C 20,3 C 20,3 C 0,8 C 58 % 61 % 21 % 1013,1 hPa 0,0 l/m 2,3 km/h (1 Bft) SO 135 0 min 1,1 UV-I 11,0 C 20,3 C 1,6 km/h (1 Bft)
23.04.2011 11:30 19,6 C 15,2 C 18,9 C 20,6 C 20,6 C 1,0 C 58 % 63 % 26 % 1013,1 hPa 0,0 l/m 3,1 km/h (1 Bft) O-NO 67 0 min 1,1 UV-I 11,1 C 20,6 C 5,5 km/h (1 Bft)
23.04.2011 11:35 19,7 C 15,2 C 19,0 C 20,8 C 20,8 C 1,1 C 56 % 60 % 29 % 1013,1 hPa 0,0 l/m 3,4 km/h (1 Bft) O-NO 67 0 min 1,3 UV-I 10,7 C 20,8 C 4,2 km/h (1 Bft)
23.04.2011 11:40 19,9 C 15,3 C 19,6 C 21,0 C 21,0 C 1,1 C 56 % 60 % 29 % 1013,1 hPa 0,0 l/m 3,5 km/h (1 Bft) O 90 0 min 1,3 UV-I 10,9 C 21,0 C 2,9 km/h (1 Bft)
23.04.2011 11:45 20,1 C 15,3 C 20,6 C 21,2 C 21,2 C 1,1 C 54 % 55 % 29 % 1013,1 hPa 0,0 l/m 4,8 km/h (1 Bft) O-NO 67 0 min 1,2 UV-I 10,5 C 21,2 C 11,6 km/h (2 Bft)
23.04.2011 11:50 20,3 C 15,3 C 20,7 C 21,3 C 21,3 C 1,0 C 54 % 56 % 26 % 1013,1 hPa 0,0 l/m 5,3 km/h (1 Bft) O-NO 67 0 min 1,2 UV-I 10,7 C 21,3 C 6,9 km/h (2 Bft)
23.04.2011 11:55 20,4 C 15,3 C 21,6 C 21,3 C 21,3 C 0,9 C 54 % 54 % 24 % 1013,2 hPa 0,0 l/m 5,8 km/h (2 Bft) N-NO 22 0 min 1,3 UV-I 10,8 C 21,3 C 14,2 km/h (3 Bft)
23.04.2011 12:00 20,6 C 15,3 C 21,9 C 21,5 C 21,5 C 0,9 C 52 % 51 % 24 % 1013,2 hPa 0,0 l/m 6,1 km/h (2 Bft) O-NO 67 0 min 1,3 UV-I 10,4 C 21,5 C 7,6 km/h (2 Bft)
23.04.2011 12:05 20,7 C 15,4 C 22,0 C 21,7 C 21,7 C 1,0 C 53 % 52 % 26 % 1013,2 hPa 0,0 l/m 6,0 km/h (2 Bft) O-NO 67 0 min 1,3 UV-I 10,8 C 21,7 C 8,0 km/h (2 Bft)
23.04.2011 12:10 20,9 C 15,3 C 22,0 C 22,1 C 22,1 C 1,2 C 51 % 52 % 32 % 1013,2 hPa 0,0 l/m 6,9 km/h (2 Bft) NO 45 0 min 1,3 UV-I 10,4 C 22,1 C 9,2 km/h (2 Bft)
23.04.2011 12:15 21,1 C 15,4 C 22,0 C 23,6 C 23,6 C 2,5 C 51 % 52 % 66 % 1012,9 hPa 0,0 l/m 6,3 km/h (2 Bft) O-NO 67 0 min 1,6 UV-I 10,6 C 23,6 C 6,4 km/h (2 Bft)
23.04.2011 12:20 21,2 C 15,4 C 22,3 C 24,4 C 24,4 C 3,2 C 50 % 49 % 84 % 1012,9 hPa 0,0 l/m 6,1 km/h (2 Bft) O-NO 67 0 min 1,6 UV-I 10,4 C 24,4 C 9,0 km/h (2 Bft)
23.04.2011 12:25 21,2 C 15,4 C 22,2 C 24,4 C 24,4 C 3,2 C 49 % 47 % 84 % 1012,9 hPa 0,0 l/m 8,5 km/h (2 Bft) O-NO 67 0 min 2,3 UV-I 10,1 C 24,4 C 16,7 km/h (3 Bft)
23.04.2011 12:30 21,3 C 15,4 C 22,2 C 24,5 C 24,5 C 3,2 C 50 % 48 % 84 % 1012,9 hPa 0,0 l/m 9,2 km/h (2 Bft) O 90 0 min 2,3 UV-I 10,4 C 24,5 C 6,9 km/h (2 Bft)
23.04.2011 12:35 21,4 C 15,4 C 22,3 C 24,7 C 24,7 C 3,3 C 50 % 49 % 87 % 1012,4 hPa 0,0 l/m 7,4 km/h (2 Bft) O-NO 67 5 min 2,4 UV-I 10,5 C 24,7 C 8,0 km/h (2 Bft)
23.04.2011 12:40 21,5 C 15,5 C 22,3 C 24,7 C 24,7 C 3,2 C 49 % 49 % 84 % 1012,4 hPa 0,0 l/m 8,2 km/h (2 Bft) NO 45 0 min 2,4 UV-I 10,3 C 24,7 C 10,1 km/h (2 Bft)
23.04.2011 12:45 21,7 C 15,5 C 22,3 C 24,9 C 24,9 C 3,2 C 50 % 50 % 84 % 1012,4 hPa 0,0 l/m 8,2 km/h (2 Bft) O-NO 67 0 min 2,4 UV-I 10,8 C 24,9 C 9,5 km/h (2 Bft)
23.04.2011 12:50 21,9 C 15,5 C 22,4 C 25,2 C 25,2 C 3,3 C 50 % 48 % 87 % 1012,4 hPa 0,0 l/m 6,8 km/h (2 Bft) O-NO 67 5 min 2,4 UV-I 11,0 C 25,2 C 7,2 km/h (2 Bft)
23.04.2011 12:55 22,0 C 15,6 C 22,4 C 25,6 C 25,6 C 3,6 C 50 % 48 % 95 % 1012,5 hPa 0,0 l/m 5,3 km/h (1 Bft) NO 45 5 min 2,5 UV-I 11,1 C 25,6 C 7,4 km/h (2 Bft)
23.04.2011 13:00 22,0 C 15,6 C 22,7 C 25,7 C 25,7 C 3,7 C 50 % 49 % 97 % 1012,5 hPa 0,0 l/m 6,1 km/h (2 Bft) O-NO 67 5 min 2,5 UV-I 11,1 C 25,7 C 4,0 km/h (1 Bft)
23.04.2011 13:05 22,1 C 15,7 C 23,0 C 25,9 C 25,9 C 3,8 C 50 % 50 % 100 % 1012,5 hPa 0,0 l/m 6,4 km/h (2 Bft) O-NO 67 5 min 2,4 UV-I 11,2 C 25,9 C 9,0 km/h (2 Bft)
23.04.2011 13:10 22,2 C 15,7 C 23,1 C 25,8 C 25,8 C 3,6 C 49 % 47 % 95 % 1012,5 hPa 0,0 l/m 6,6 km/h (2 Bft) O-NO 67 5 min 2,4 UV-I 11,0 C 25,8 C 13,2 km/h (3 Bft)
23.04.2011 13:15 22,2 C 15,7 C 23,0 C 25,9 C 25,9 C 3,7 C 49 % 47 % 97 % 1012,2 hPa 0,0 l/m 6,8 km/h (2 Bft) O-NO 67 5 min 2,4 UV-I 11,0 C 25,9 C 8,9 km/h (2 Bft)
23.04.2011 13:20 22,2 C 15,8 C 22,9 C 25,7 C 25,7 C 3,5 C 49 % 48 % 92 % 1012,2 hPa 0,0 l/m 7,1 km/h (2 Bft) O-NO 67 5 min 2,4 UV-I 11,0 C 25,7 C 9,5 km/h (2 Bft)
23.04.2011 13:25 22,3 C 15,8 C 23,2 C 25,7 C 25,7 C 3,4 C 48 % 47 % 89 % 1012,2 hPa 0,0 l/m 7,7 km/h (2 Bft) O-NO 67 5 min 2,4 UV-I 10,8 C 25,7 C 11,6 km/h (2 Bft)
23.04.2011 13:30 22,3 C 15,8 C 23,4 C 25,5 C 25,5 C 3,2 C 45 % 44 % 84 % 1012,2 hPa 0,0 l/m 8,9 km/h (2 Bft) O-NO 67 0 min 2,4 UV-I 9,8 C 25,5 C 10,8 km/h (2 Bft)
23.04.2011 13:35 22,5 C 15,9 C 23,5 C 25,6 C 25,6 C 3,1 C 46 % 44 % 82 % 1012,4 hPa 0,0 l/m 8,4 km/h (2 Bft) O-NO 67 0 min 2,5 UV-I 10,3 C 25,6 C 18,0 km/h (3 Bft)
23.04.2011 13:40 22,5 C 15,9 C 23,5 C 25,9 C 25,9 C 3,4 C 46 % 45 % 89 % 1012,4 hPa 0,0 l/m 7,1 km/h (2 Bft) NO 45 5 min 2,5 UV-I 10,3 C 25,9 C 9,0 km/h (2 Bft)
23.04.2011 13:45 22,4 C 15,9 C 23,6 C 26,2 C 26,2 C 3,8 C 49 % 47 % 100 % 1012,4 hPa 0,0 l/m 5,3 km/h (1 Bft) O-NO 67 5 min 2,5 UV-I 11,2 C 26,2 C 3,2 km/h (1 Bft)
23.04.2011 13:50 22,4 C 15,9 C 23,5 C 26,4 C 26,4 C 4,0 C 49 % 48 % 100 % 1012,4 hPa 0,0 l/m 5,0 km/h (1 Bft) NO 45 5 min 2,5 UV-I 11,2 C 26,4 C 5,8 km/h (2 Bft)
23.04.2011 13:55 22,5 C 16,0 C 23,9 C 26,5 C 26,5 C 4,0 C 48 % 46 % 100 % 1012,1 hPa 0,0 l/m 5,1 km/h (1 Bft) O-NO 67 5 min 2,4 UV-I 10,9 C 26,5 C 8,7 km/h (2 Bft)
23.04.2011 14:00 22,5 C 16,0 C 23,9 C 26,5 C 26,5 C 4,0 C 48 % 46 % 100 % 1012,1 hPa 0,0 l/m 5,5 km/h (1 Bft) N-NW 337 5 min 2,4 UV-I 10,9 C 26,5 C 6,9 km/h (2 Bft)
23.04.2011 14:05 22,8 C 16,0 C 24,3 C 26,6 C 26,6 C 3,8 C 47 % 46 % 100 % 1012,1 hPa 0,0 l/m 5,5 km/h (1 Bft) W 270 5 min 2,3 UV-I 10,9 C 26,6 C 4,7 km/h (1 Bft)
23.04.2011 14:10 22,8 C 16,0 C 24,6 C 26,9 C 26,9 C 4,1 C 49 % 46 % 100 % 1012,1 hPa 0,0 l/m 5,1 km/h (1 Bft) O-NO 67 5 min 2,3 UV-I 11,5 C 26,9 C 9,2 km/h (2 Bft)
23.04.2011 14:15 22,8 C 16,1 C 24,6 C 26,6 C 26,6 C 3,8 C 45 % 46 % 100 % 1012,3 hPa 0,0 l/m 6,6 km/h (2 Bft) O-NO 67 5 min 2,3 UV-I 10,2 C 26,6 C 10,0 km/h (2 Bft)
23.04.2011 14:20 23,0 C 16,1 C 24,6 C 26,6 C 26,6 C 3,6 C 46 % 46 % 95 % 1012,3 hPa 0,0 l/m 7,6 km/h (2 Bft) O-NO 67 5 min 2,3 UV-I 10,7 C 26,6 C 13,5 km/h (3 Bft)
23.04.2011 14:25 23,0 C 16,1 C 24,6 C 26,1 C 26,1 C 3,1 C 43 % 46 % 82 % 1012,3 hPa 0,0 l/m 9,3 km/h (2 Bft) NO 45 0 min 2,2 UV-I 9,7 C 26,1 C 21,9 km/h (4 Bft)
23.04.2011 14:30 22,9 C 16,1 C 24,6 C 25,8 C 25,8 C 2,9 C 43 % 46 % 76 % 1012,3 hPa 0,0 l/m 10,9 km/h (2 Bft) NO 45 0 min 2,2 UV-I 9,6 C 25,8 C 10,1 km/h (2 Bft)
23.04.2011 14:35 23,2 C 16,2 C 24,6 C 26,0 C 26,0 C 2,8 C 43 % 46 % 74 % 1012,1 hPa 0,0 l/m 9,5 km/h (2 Bft) O-NO 67 0 min 2,1 UV-I 9,9 C 26,0 C 7,4 km/h (2 Bft)
23.04.2011 14:40 23,2 C 16,2 C 24,6 C 26,1 C 26,1 C 2,9 C 43 % 46 % 76 % 1012,1 hPa 0,0 l/m 8,0 km/h (2 Bft) O-NO 67 0 min 2,1 UV-I 9,9 C 26,1 C 12,4 km/h (3 Bft)
23.04.2011 14:45 23,3 C 16,3 C 24,6 C 26,3 C 26,3 C 3,0 C 42 % 46 % 79 % 1012,1 hPa 0,0 l/m 7,4 km/h (2 Bft) O-NO 67 0 min 2,0 UV-I 9,7 C 26,3 C 8,2 km/h (2 Bft)
23.04.2011 14:50 23,3 C 16,3 C 24,6 C 26,5 C 26,5 C 3,2 C 41 % 46 % 84 % 1012,1 hPa 0,0 l/m 6,8 km/h (2 Bft) O-NO 67 0 min 2,0 UV-I 9,3 C 26,5 C 7,7 km/h (2 Bft)
23.04.2011 14:55 23,3 C 16,4 C 24,6 C 26,7 C 26,7 C 3,4 C 41 % 46 % 89 % 1012,2 hPa 0,0 l/m 6,3 km/h (2 Bft) NO 45 5 min 1,9 UV-I 9,3 C 26,7 C 9,7 km/h (2 Bft)
23.04.2011 15:00 23,3 C 16,4 C 24,6 C 26,6 C 26,6 C 3,3 C 43 % 46 % 87 % 1012,2 hPa 0,0 l/m 6,3 km/h (2 Bft) O-NO 67 5 min 1,9 UV-I 10,0 C 26,6 C 7,2 km/h (2 Bft)
23.04.2011 15:05 23,4 C 16,5 C 24,6 C 26,7 C 26,7 C 3,3 C 41 % 46 % 87 % 1012,2 hPa 0,0 l/m 7,2 km/h (2 Bft) O-NO 67 5 min 1,8 UV-I 9,4 C 26,7 C 13,4 km/h (3 Bft)
23.04.2011 15:10 23,3 C 16,5 C 24,6 C 26,3 C 26,3 C 3,0 C 40 % 46 % 79 % 1012,2 hPa 0,0 l/m 9,0 km/h (2 Bft) NO 45 0 min 1,8 UV-I 8,9 C 26,3 C 10,0 km/h (2 Bft)
23.04.2011 15:15 23,4 C 16,6 C 24,6 C 26,2 C 26,2 C 2,8 C 41 % 46 % 74 % 1012,2 hPa 0,0 l/m 9,5 km/h (2 Bft) O-NO 67 0 min 1,6 UV-I 9,4 C 26,2 C 10,9 km/h (2 Bft)
23.04.2011 15:20 23,4 C 16,6 C 24,6 C 26,3 C 26,3 C 2,9 C 41 % 46 % 76 % 1012,2 hPa 0,0 l/m 8,0 km/h (2 Bft) O-NO 67 0 min 1,6 UV-I 9,4 C 26,3 C 13,8 km/h (3 Bft)
23.04.2011 15:25 23,4 C 16,7 C 24,6 C 26,1 C 26,1 C 2,7 C 41 % 46 % 71 % 1012,2 hPa 0,0 l/m 9,0 km/h (2 Bft) O-SO 112 0 min 1,5 UV-I 9,4 C 26,1 C 11,3 km/h (2 Bft)
23.04.2011 15:30 23,5 C 16,7 C 24,6 C 26,0 C 26,0 C 2,5 C 40 % 46 % 66 % 1012,2 hPa 0,0 l/m 9,8 km/h (2 Bft) O-NO 67 0 min 1,5 UV-I 9,1 C 26,0 C 12,6 km/h (3 Bft)
23.04.2011 15:35 23,4 C 16,7 C 24,6 C 25,9 C 25,9 C 2,5 C 39 % 46 % 66 % 1012,1 hPa 0,0 l/m 10,0 km/h (2 Bft) NO 45 0 min 1,4 UV-I 8,6 C 25,9 C 11,6 km/h (2 Bft)
23.04.2011 15:40 23,6 C 16,9 C 24,6 C 25,9 C 25,9 C 2,3 C 40 % 46 % 61 % 1012,1 hPa 0,0 l/m 10,6 km/h (2 Bft) O-NO 67 0 min 1,4 UV-I 9,2 C 25,9 C 9,8 km/h (2 Bft)
23.04.2011 15:45 23,7 C 16,9 C 24,6 C 26,1 C 26,1 C 2,4 C 40 % 46 % 63 % 1012,1 hPa 0,0 l/m 9,2 km/h (2 Bft) O-NO 67 0 min 1,3 UV-I 9,3 C 26,1 C 7,4 km/h (2 Bft)
23.04.2011 15:50 23,7 C 17,0 C 24,6 C 26,2 C 26,2 C 2,5 C 39 % 46 % 66 % 1012,1 hPa 0,0 l/m 7,9 km/h (2 Bft) O-NO 67 0 min 1,3 UV-I 8,9 C 26,2 C 10,8 km/h (2 Bft)
23.04.2011 15:55 23,8 C 17,0 C 24,6 C 26,4 C 26,4 C 2,6 C 39 % 46 % 68 % 1011,9 hPa 0,0 l/m 6,9 km/h (2 Bft) O-NO 67 0 min 1,2 UV-I 9,0 C 26,4 C 7,7 km/h (2 Bft)
23.04.2011 16:00 23,7 C 17,1 C 24,6 C 26,5 C 26,5 C 2,8 C 38 % 46 % 74 % 1011,9 hPa 0,0 l/m 7,1 km/h (2 Bft) O-NO 67 0 min 1,2 UV-I 8,5 C 26,5 C 10,8 km/h (2 Bft)
23.04.2011 16:05 23,7 C 17,1 C 24,6 C 26,5 C 26,5 C 2,8 C 37 % 46 % 74 % 1011,9 hPa 0,0 l/m 7,4 km/h (2 Bft) NO 45 0 min 1,1 UV-I 8,1 C 26,5 C 13,5 km/h (3 Bft)
23.04.2011 16:10 23,7 C 17,1 C 24,6 C 26,3 C 26,3 C 2,6 C 38 % 46 % 68 % 1011,9 hPa 0,0 l/m 7,7 km/h (2 Bft) NO 45 0 min 1,1 UV-I 8,5 C 26,3 C 7,1 km/h (2 Bft)
23.04.2011 16:15 23,9 C 17,2 C 24,6 C 26,3 C 26,3 C 2,4 C 38 % 46 % 63 % 1012,0 hPa 0,0 l/m 7,7 km/h (2 Bft) N-NO 22 0 min 1,0 UV-I 8,7 C 26,3 C 11,6 km/h (2 Bft)
23.04.2011 16:20 23,7 C 17,2 C 24,6 C 26,1 C 26,1 C 2,4 C 37 % 46 % 63 % 1012,0 hPa 0,0 l/m 8,9 km/h (2 Bft) NO 45 0 min 1,0 UV-I 8,1 C 26,1 C 15,3 km/h (3 Bft)
23.04.2011 16:25 23,6 C 17,3 C 24,8 C 25,7 C 25,7 C 2,1 C 38 % 37 % 55 % 1012,0 hPa 0,0 l/m 11,1 km/h (2 Bft) NO 45 0 min 0,9 UV-I 8,4 C 25,7 C 8,4 km/h (2 Bft)
23.04.2011 16:30 23,7 C 17,3 C 24,9 C 25,8 C 25,8 C 2,1 C 37 % 38 % 55 % 1012,0 hPa 0,0 l/m 10,5 km/h (2 Bft) O-NO 67 0 min 0,9 UV-I 8,1 C 25,8 C 21,1 km/h (4 Bft)
23.04.2011 16:35 23,6 C 17,3 C 24,5 C 25,7 C 25,7 C 2,1 C 37 % 36 % 55 % 1011,9 hPa 0,0 l/m 10,3 km/h (2 Bft) O-NO 67 0 min 0,8 UV-I 8,0 C 25,7 C 10,6 km/h (2 Bft)
23.04.2011 16:40 23,6 C 17,4 C 24,5 C 25,5 C 25,5 C 1,9 C 38 % 37 % 50 % 1011,9 hPa 0,0 l/m 11,3 km/h (2 Bft) NO 45 0 min 0,8 UV-I 8,4 C 25,5 C 9,2 km/h (2 Bft)
23.04.2011 16:45 23,7 C 17,4 C 24,5 C 25,5 C 25,5 C 1,8 C 37 % 37 % 47 % 1011,9 hPa 0,0 l/m 10,3 km/h (2 Bft) O-NO 67 0 min 0,7 UV-I 8,1 C 25,5 C 10,8 km/h (2 Bft)
23.04.2011 16:50 23,6 C 17,4 C 24,5 C 25,4 C 25,4 C 1,8 C 36 % 37 % 47 % 1011,9 hPa 0,0 l/m 10,1 km/h (2 Bft) O-NO 67 0 min 0,7 UV-I 7,6 C 25,4 C 10,3 km/h (2 Bft)
23.04.2011 16:55 23,6 C 17,5 C 24,3 C 25,4 C 25,4 C 1,8 C 36 % 36 % 47 % 1011,9 hPa 0,0 l/m 9,5 km/h (2 Bft) O-NO 67 0 min 0,5 UV-I 7,6 C 25,4 C 19,5 km/h (3 Bft)
23.04.2011 17:00 23,6 C 17,5 C 24,3 C 25,4 C 25,4 C 1,8 C 36 % 36 % 47 % 1011,9 hPa 0,0 l/m 9,0 km/h (2 Bft) NO 45 0 min 0,5 UV-I 7,6 C 25,4 C 14,6 km/h (3 Bft)
23.04.2011 17:05 23,5 C 17,5 C 24,3 C 25,2 C 25,2 C 1,7 C 36 % 36 % 45 % 1011,9 hPa 0,0 l/m 10,8 km/h (2 Bft) O-NO 67 0 min 0,5 UV-I 7,6 C 25,2 C 10,0 km/h (2 Bft)
23.04.2011 17:10 23,5 C 17,5 C 24,3 C 25,1 C 25,1 C 1,6 C 36 % 36 % 42 % 1011,9 hPa 0,0 l/m 11,6 km/h (2 Bft) O-NO 67 0 min 0,5 UV-I 7,6 C 25,1 C 16,7 km/h (3 Bft)
23.04.2011 17:15 23,6 C 17,6 C 24,3 C 25,0 C 25,0 C 1,4 C 36 % 36 % 37 % 1011,9 hPa 0,0 l/m 10,6 km/h (2 Bft) NO 45 0 min 0,4 UV-I 7,6 C 25,0 C 12,9 km/h (3 Bft)
23.04.2011 17:20 23,5 C 17,6 C 24,3 C 24,9 C 24,9 C 1,4 C 35 % 36 % 37 % 1011,9 hPa 0,0 l/m 10,9 km/h (2 Bft) O 90 0 min 0,4 UV-I 7,1 C 24,9 C 13,2 km/h (3 Bft)
23.04.2011 17:25 23,5 C 17,6 C 24,3 C 24,8 C 24,8 C 1,3 C 36 % 36 % 34 % 1011,9 hPa 0,0 l/m 10,3 km/h (2 Bft) O-NO 67 0 min 0,4 UV-I 7,6 C 24,8 C 9,8 km/h (2 Bft)
23.04.2011 17:30 23,5 C 17,6 C 24,3 C 24,7 C 24,7 C 1,2 C 36 % 36 % 32 % 1011,9 hPa 0,0 l/m 9,5 km/h (2 Bft) O-NO 67 0 min 0,4 UV-I 7,6 C 24,7 C 7,6 km/h (2 Bft)
23.04.2011 17:35 23,3 C 17,6 C 24,3 C 24,6 C 24,6 C 1,3 C 34 % 36 % 34 % 1012,2 hPa 0,0 l/m 10,6 km/h (2 Bft) O-NO 67 0 min 0,3 UV-I 6,6 C 24,6 C 17,7 km/h (3 Bft)
23.04.2011 17:40 23,2 C 17,6 C 24,3 C 24,5 C 24,5 C 1,3 C 35 % 36 % 34 % 1012,2 hPa 0,0 l/m 11,3 km/h (2 Bft) NO 45 0 min 0,3 UV-I 6,9 C 24,5 C 17,2 km/h (3 Bft)
23.04.2011 17:45 23,2 C 17,6 C 24,3 C 24,3 C 24,3 C 1,1 C 35 % 36 % 29 % 1012,2 hPa 0,0 l/m 11,1 km/h (2 Bft) NO 45 0 min 0,2 UV-I 6,9 C 24,3 C 10,9 km/h (2 Bft)
23.04.2011 17:50 23,1 C 17,7 C 24,3 C 24,3 C 24,3 C 1,2 C 35 % 36 % 32 % 1012,2 hPa 0,0 l/m 11,6 km/h (2 Bft) O-NO 67 0 min 0,2 UV-I 6,8 C 24,3 C 14,5 km/h (3 Bft)
23.04.2011 17:55 23,1 C 17,7 C 23,1 C 24,1 C 24,1 C 1,0 C 37 % 37 % 26 % 1012,2 hPa 0,0 l/m 10,8 km/h (2 Bft) O-NO 67 0 min 0,2 UV-I 7,6 C 24,1 C 8,9 km/h (2 Bft)
23.04.2011 18:00 23,0 C 17,7 C 23,1 C 24,2 C 24,2 C 1,2 C 38 % 37 % 32 % 1012,2 hPa 0,0 l/m 9,0 km/h (2 Bft) O-NO 67 0 min 0,2 UV-I 7,9 C 24,2 C 13,4 km/h (3 Bft)
23.04.2011 18:05 23,1 C 17,7 C 22,9 C 24,2 C 24,2 C 1,1 C 38 % 39 % 29 % 1012,2 hPa 0,0 l/m 7,6 km/h (2 Bft) O-NO 67 0 min 0,1 UV-I 8,0 C 24,2 C 5,6 km/h (1 Bft)
23.04.2011 18:10 23,0 C 17,7 C 22,9 C 24,1 C 24,1 C 1,1 C 38 % 39 % 29 % 1012,2 hPa 0,0 l/m 7,6 km/h (2 Bft) N-NO 22 0 min 0,1 UV-I 7,9 C 24,1 C 12,7 km/h (3 Bft)
23.04.2011 18:15 22,8 C 17,7 C 22,9 C 24,0 C 24,0 C 1,2 C 38 % 39 % 32 % 1012,3 hPa 0,0 l/m 7,9 km/h (2 Bft) NO 45 0 min 0,1 UV-I 7,7 C 24,0 C 11,1 km/h (2 Bft)
23.04.2011 18:20 22,8 C 17,7 C 22,9 C 23,8 C 23,8 C 1,0 C 38 % 39 % 26 % 1012,3 hPa 0,0 l/m 8,5 km/h (2 Bft) O-NO 67 0 min 0,1 UV-I 7,7 C 23,8 C 9,0 km/h (2 Bft)
23.04.2011 18:25 22,7 C 17,7 C 22,6 C 23,6 C 23,6 C 0,9 C 38 % 39 % 24 % 1012,3 hPa 0,0 l/m 8,0 km/h (2 Bft) O-NO 67 0 min 0,1 UV-I 7,6 C 23,6 C 7,7 km/h (2 Bft)
23.04.2011 18:30 22,6 C 17,7 C 22,5 C 23,6 C 23,6 C 1,0 C 38 % 39 % 26 % 1012,3 hPa 0,0 l/m 8,2 km/h (2 Bft) NO 45 0 min 0,1 UV-I 7,6 C 23,6 C 14,3 km/h (3 Bft)
23.04.2011 18:35 22,6 C 17,8 C 22,4 C 23,4 C 23,4 C 0,8 C 38 % 39 % 21 % 1012,4 hPa 0,0 l/m 9,0 km/h (2 Bft) NO 45 0 min 0,1 UV-I 7,6 C 23,4 C 11,4 km/h (2 Bft)
23.04.2011 18:40 22,4 C 17,8 C 22,3 C 23,2 C 23,2 C 0,8 C 38 % 40 % 21 % 1012,4 hPa 0,0 l/m 9,3 km/h (2 Bft) O-NO 67 0 min 0,1 UV-I 7,4 C 23,2 C 10,0 km/h (2 Bft)
23.04.2011 18:45 22,3 C 17,8 C 22,3 C 23,0 C 23,0 C 0,7 C 40 % 40 % 18 % 1012,4 hPa 0,0 l/m 8,0 km/h (2 Bft) O-NO 67 0 min 0,0 UV-I 8,0 C 23,0 C 8,0 km/h (2 Bft)
23.04.2011 18:50 22,2 C 17,9 C 22,3 C 22,8 C 22,8 C 0,6 C 39 % 40 % 16 % 1012,4 hPa 0,0 l/m 8,4 km/h (2 Bft) NO 45 0 min 0,0 UV-I 7,6 C 22,8 C 10,8 km/h (2 Bft)
23.04.2011 18:55 22,1 C 17,9 C 22,3 C 22,5 C 22,5 C 0,4 C 39 % 40 % 11 % 1012,4 hPa 0,0 l/m 9,5 km/h (2 Bft) N-NO 22 0 min 0,0 UV-I 7,5 C 22,5 C 11,9 km/h (2 Bft)
23.04.2011 19:00 22,1 C 17,9 C 22,3 C 22,3 C 22,3 C 0,2 C 39 % 40 % 5 % 1012,4 hPa 0,0 l/m 10,0 km/h (2 Bft) N-NO 22 0 min 0,0 UV-I 7,5 C 22,3 C 8,4 km/h (2 Bft)
23.04.2011 19:05 21,9 C 17,9 C 22,3 C 22,1 C 22,1 C 0,2 C 40 % 40 % 5 % 1012,4 hPa 0,0 l/m 8,4 km/h (2 Bft) O-NO 67 0 min 0,0 UV-I 7,7 C 22,1 C 9,8 km/h (2 Bft)
23.04.2011 19:10 21,7 C 17,9 C 22,3 C 22,0 C 22,0 C 0,3 C 41 % 40 % 8 % 1012,4 hPa 0,0 l/m 7,4 km/h (2 Bft) NO 45 0 min 0,0 UV-I 7,9 C 22,0 C 9,5 km/h (2 Bft)
23.04.2011 19:15 21,5 C 17,9 C 22,3 C 21,6 C 21,6 C 0,1 C 41 % 40 % 3 % 1012,1 hPa 0,0 l/m 6,3 km/h (2 Bft) O-NO 67 0 min 0,0 UV-I 7,7 C 21,6 C 7,6 km/h (2 Bft)
23.04.2011 19:20 21,5 C 17,9 C 22,3 C 21,5 C 21,5 C 0,0 C 42 % 40 % 0 % 1012,1 hPa 0,0 l/m 5,6 km/h (1 Bft) O-NO 67 0 min 0,0 UV-I 8,0 C 21,5 C 4,5 km/h (1 Bft)
23.04.2011 19:25 21,2 C 17,9 C 20,9 C 21,2 C 21,2 C 0,0 C 42 % 44 % 0 % 1012,1 hPa 0,0 l/m 5,1 km/h (1 Bft) O-NO 67 0 min 0,0 UV-I 7,8 C 21,2 C 4,7 km/h (1 Bft)
23.04.2011 19:30 21,0 C 17,9 C 20,9 C 21,0 C 21,0 C 0,0 C 43 % 44 % 0 % 1012,1 hPa 0,0 l/m 4,5 km/h (1 Bft) O-NO 67 0 min 0,0 UV-I 7,9 C 21,0 C 3,9 km/h (1 Bft)
23.04.2011 19:35 20,8 C 17,9 C 20,4 C 20,7 C 20,6 C 0,0 C 43 % 45 % 0 % 1012,8 hPa 0,0 l/m 4,0 km/h (1 Bft) O-NO 67 0 min 0,0 UV-I 7,8 C 20,6 C 3,7 km/h (1 Bft)
23.04.2011 19:40 20,6 C 17,8 C 20,4 C 20,5 C 20,4 C 0,0 C 44 % 46 % 0 % 1012,8 hPa 0,0 l/m 3,5 km/h (1 Bft) NO 45 0 min 0,0 UV-I 7,9 C 20,4 C 2,1 km/h (1 Bft)
23.04.2011 19:45 20,5 C 17,8 C 20,1 C 20,3 C 19,9 C 0,0 C 45 % 47 % 0 % 1012,8 hPa 0,0 l/m 2,6 km/h (1 Bft) O-NO 67 0 min 0,0 UV-I 8,2 C 19,9 C 4,7 km/h (1 Bft)
23.04.2011 19:50 20,2 C 17,8 C 19,9 C 20,0 C 19,6 C 0,0 C 46 % 48 % 0 % 1012,8 hPa 0,0 l/m 3,2 km/h (1 Bft) O-NO 67 0 min 0,0 UV-I 8,2 C 19,6 C 5,3 km/h (1 Bft)
23.04.2011 19:55 20,0 C 17,8 C 19,4 C 19,7 C 19,1 C 0,0 C 46 % 48 % 0 % 1013,1 hPa 0,0 l/m 4,5 km/h (1 Bft) O 90 0 min 0,0 UV-I 8,0 C 19,1 C 5,5 km/h (1 Bft)
23.04.2011 20:00 19,9 C 17,8 C 19,3 C 19,5 C 18,8 C 0,0 C 47 % 49 % 0 % 1013,1 hPa 0,0 l/m 4,3 km/h (1 Bft) O-NO 67 0 min 0,0 UV-I 8,3 C 18,8 C 4,5 km/h (1 Bft)
23.04.2011 20:05 19,7 C 17,8 C 19,0 C 19,2 C 18,3 C 0,0 C 47 % 49 % 0 % 1013,1 hPa 0,0 l/m 4,0 km/h (1 Bft) NO 45 0 min 0,0 UV-I 8,1 C 18,3 C 4,5 km/h (1 Bft)
23.04.2011 20:10 19,4 C 17,8 C 18,8 C 19,0 C 18,1 C 0,0 C 48 % 50 % 0 % 1013,1 hPa 0,0 l/m 3,9 km/h (1 Bft) O-NO 67 0 min 0,0 UV-I 8,1 C 18,1 C 3,7 km/h (1 Bft)
23.04.2011 20:15 19,2 C 17,9 C 18,7 C 18,7 C 17,8 C 0,0 C 48 % 51 % 0 % 1013,1 hPa 0,0 l/m 3,9 km/h (1 Bft) O-NO 67 0 min 0,0 UV-I 7,9 C 17,8 C 3,2 km/h (1 Bft)
23.04.2011 20:20 19,1 C 17,9 C 18,4 C 18,6 C 17,5 C 0,0 C 49 % 51 % 0 % 1013,1 hPa 0,0 l/m 3,7 km/h (1 Bft) O-NO 67 0 min 0,0 UV-I 8,1 C 17,5 C 3,7 km/h (1 Bft)
23.04.2011 20:25 18,8 C 17,9 C 18,3 C 18,3 C 17,2 C 0,0 C 49 % 52 % 0 % 1013,1 hPa 0,0 l/m 3,7 km/h (1 Bft) O-NO 67 0 min 0,0 UV-I 7,9 C 17,2 C 4,3 km/h (1 Bft)
23.04.2011 20:30 18,7 C 17,9 C 18,1 C 18,1 C 17,0 C 0,0 C 49 % 52 % 0 % 1013,1 hPa 0,0 l/m 3,5 km/h (1 Bft) NO 45 0 min 0,0 UV-I 7,8 C 17,0 C 2,7 km/h (1 Bft)
23.04.2011 20:35 18,6 C 17,8 C 17,9 C 18,0 C 16,8 C 0,0 C 49 % 52 % 0 % 1013,3 hPa 0,0 l/m 2,9 km/h (1 Bft) NO 45 0 min 0,0 UV-I 7,7 C 16,8 C 2,6 km/h (1 Bft)
23.04.2011 20:40 18,4 C 17,8 C 17,9 C 17,8 C 16,5 C 0,0 C 49 % 52 % 0 % 1013,3 hPa 0,0 l/m 2,7 km/h (1 Bft) NO 45 0 min 0,0 UV-I 7,5 C 16,5 C 3,2 km/h (1 Bft)
23.04.2011 20:45 18,3 C 17,8 C 17,6 C 17,6 C 16,3 C 0,0 C 50 % 53 % 0 % 1013,3 hPa 0,0 l/m 2,7 km/h (1 Bft) O-NO 67 0 min 0,0 UV-I 7,7 C 16,3 C 3,7 km/h (1 Bft)
23.04.2011 20:50 18,2 C 17,8 C 17,5 C 17,5 C 16,2 C 0,0 C 50 % 53 % 0 % 1013,3 hPa 0,0 l/m 2,9 km/h (1 Bft) O-NO 67 0 min 0,0 UV-I 7,6 C 16,2 C 2,7 km/h (1 Bft)
23.04.2011 20:55 18,0 C 17,8 C 17,3 C 17,4 C 16,1 C 0,0 C 50 % 53 % 0 % 1013,8 hPa 0,0 l/m 3,2 km/h (1 Bft) O-NO 67 0 min 0,0 UV-I 7,4 C 16,1 C 3,9 km/h (1 Bft)
23.04.2011 21:00 17,9 C 17,8 C 17,2 C 17,3 C 16,0 C 0,0 C 50 % 53 % 0 % 1013,8 hPa 0,0 l/m 3,2 km/h (1 Bft) NO 45 0 min 0,0 UV-I 7,3 C 16,0 C 3,4 km/h (1 Bft)
23.04.2011 21:05 17,8 C 17,8 C 16,9 C 17,2 C 15,9 C 0,0 C 51 % 54 % 0 % 1013,8 hPa 0,0 l/m 3,1 km/h (1 Bft) NO 45 0 min 0,0 UV-I 7,5 C 15,9 C 3,2 km/h (1 Bft)
23.04.2011 21:10 17,7 C 17,7 C 16,8 C 17,1 C 15,8 C 0,0 C 51 % 54 % 0 % 1013,8 hPa 0,0 l/m 2,9 km/h (1 Bft) O-NO 67 0 min 0,0 UV-I 7,4 C 15,8 C 2,7 km/h (1 Bft)
23.04.2011 21:15 17,6 C 17,7 C 16,7 C 17,0 C 15,8 C 0,0 C 51 % 54 % 0 % 1014,2 hPa 0,0 l/m 3,2 km/h (1 Bft) NO 45 0 min 0,0 UV-I 7,3 C 15,8 C 3,9 km/h (1 Bft)
23.04.2011 21:20 17,7 C 17,7 C 16,7 C 17,1 C 15,8 C 0,0 C 51 % 54 % 0 % 1014,2 hPa 0,0 l/m 3,9 km/h (1 Bft) O-NO 67 0 min 0,0 UV-I 7,4 C 15,8 C 5,5 km/h (1 Bft)
23.04.2011 21:25 17,5 C 17,7 C 16,8 C 17,0 C 15,9 C 0,0 C 51 % 54 % 0 % 1014,2 hPa 0,0 l/m 4,5 km/h (1 Bft) O-NO 67 0 min 0,0 UV-I 7,3 C 15,9 C 5,1 km/h (1 Bft)
23.04.2011 21:30 17,4 C 17,7 C 16,7 C 16,9 C 15,9 C 0,0 C 51 % 54 % 0 % 1014,2 hPa 0,0 l/m 4,2 km/h (1 Bft) NO 45 0 min 0,0 UV-I 7,2 C 15,9 C 4,7 km/h (1 Bft)
23.04.2011 21:35 17,3 C 17,7 C 16,6 C 16,8 C 15,7 C 0,0 C 52 % 54 % 0 % 1013,9 hPa 0,0 l/m 3,1 km/h (1 Bft) N-NW 337 0 min 0,0 UV-I 7,3 C 15,7 C 1,9 km/h (1 Bft)
23.04.2011 21:40 17,2 C 17,7 C 16,3 C 16,6 C 15,4 C 0,0 C 52 % 55 % 0 % 1013,9 hPa 0,0 l/m 1,8 km/h (1 Bft) NO 45 0 min 0,0 UV-I 7,3 C 15,4 C 0,0 km/h (0 Bft)
23.04.2011 21:45 17,1 C 17,7 C 16,0 C 16,4 C 15,0 C 0,0 C 52 % 56 % 0 % 1013,9 hPa 0,0 l/m 0,6 km/h (0 Bft) O 90 0 min 0,0 UV-I 7,2 C 15,0 C 0,0 km/h (0 Bft)
23.04.2011 21:50 16,9 C 17,7 C 15,9 C 16,2 C 14,7 C 0,0 C 52 % 56 % 0 % 1013,9 hPa 0,0 l/m 0,5 km/h (0 Bft) N-NW 337 0 min 0,0 UV-I 7,0 C 14,7 C 1,8 km/h (1 Bft)
23.04.2011 21:55 16,7 C 17,7 C 15,6 C 15,9 C 14,4 C 0,0 C 53 % 57 % 0 % 1013,8 hPa 0,0 l/m 0,3 km/h (0 Bft) N-NO 22 0 min 0,0 UV-I 7,1 C 14,4 C 4,2 km/h (1 Bft)
23.04.2011 22:00 16,6 C 17,7 C 15,5 C 15,8 C 14,3 C 0,0 C 52 % 57 % 0 % 1013,8 hPa 0,0 l/m 0,6 km/h (0 Bft) NO 45 0 min 0,0 UV-I 6,7 C 14,3 C 2,4 km/h (1 Bft)
23.04.2011 22:05 16,7 C 17,7 C 15,6 C 15,9 C 14,4 C 0,0 C 52 % 57 % 0 % 1013,8 hPa 0,0 l/m 1,4 km/h (1 Bft) O-NO 67 0 min 0,0 UV-I 6,8 C 14,4 C 1,6 km/h (1 Bft)
23.04.2011 22:10 16,6 C 17,7 C 15,5 C 15,8 C 14,3 C 0,0 C 51 % 57 % 0 % 1013,8 hPa 0,0 l/m 1,4 km/h (1 Bft) O-NO 67 0 min 0,0 UV-I 6,4 C 14,3 C 1,8 km/h (1 Bft)
23.04.2011 22:15 16,7 C 17,6 C 15,6 C 16,0 C 14,5 C 0,0 C 51 % 56 % 0 % 1014,0 hPa 0,0 l/m 1,9 km/h (1 Bft) O-NO 67 0 min 0,0 UV-I 6,5 C 14,5 C 2,4 km/h (1 Bft)
23.04.2011 22:20 16,6 C 17,6 C 15,5 C 15,9 C 14,5 C 0,0 C 51 % 56 % 0 % 1014,0 hPa 0,0 l/m 2,3 km/h (1 Bft) O-NO 67 0 min 0,0 UV-I 6,4 C 14,5 C 0,0 km/h (0 Bft)
23.04.2011 22:25 16,6 C 17,6 C 15,6 C 16,0 C 14,7 C 0,0 C 50 % 55 % 0 % 1014,0 hPa 0,0 l/m 2,4 km/h (1 Bft) N-NW 337 0 min 0,0 UV-I 6,1 C 14,7 C 3,2 km/h (1 Bft)
23.04.2011 22:30 16,5 C 17,6 C 15,6 C 15,9 C 14,7 C 0,0 C 50 % 55 % 0 % 1014,0 hPa 0,0 l/m 2,7 km/h (1 Bft) N-NW 337 0 min 0,0 UV-I 6,0 C 14,7 C 3,2 km/h (1 Bft)
23.04.2011 22:35 16,4 C 17,6 C 15,5 C 15,8 C 14,6 C 0,0 C 50 % 56 % 0 % 1014,2 hPa 0,0 l/m 2,3 km/h (1 Bft) O 90 0 min 0,0 UV-I 6,0 C 14,6 C 3,9 km/h (1 Bft)
23.04.2011 22:40 16,3 C 17,6 C 15,1 C 15,7 C 14,4 C 0,0 C 50 % 57 % 0 % 1014,2 hPa 0,0 l/m 1,4 km/h (1 Bft) O 90 0 min 0,0 UV-I 5,9 C 14,4 C 0,0 km/h (0 Bft)
23.04.2011 22:45 16,1 C 17,6 C 14,7 C 15,4 C 14,0 C 0,0 C 55 % 61 % 0 % 1014,2 hPa 0,0 l/m 0,5 km/h (0 Bft) S-SO 157 0 min 0,0 UV-I 7,1 C 14,0 C 0,0 km/h (0 Bft)
23.04.2011 22:50 15,9 C 17,5 C 14,3 C 15,1 C 13,5 C 0,0 C 56 % 62 % 0 % 1014,2 hPa 0,0 l/m 0,5 km/h (0 Bft) S 180 0 min 0,0 UV-I 7,1 C 13,5 C 0,0 km/h (0 Bft)
23.04.2011 22:55 15,7 C 17,5 C 14,0 C 14,8 C 12,9 C 0,0 C 56 % 62 % 0 % 1014,4 hPa 0,0 l/m 1,3 km/h (1 Bft) S 180 0 min 0,0 UV-I 6,9 C 12,9 C 0,0 km/h (0 Bft)
23.04.2011 23:00 15,7 C 17,5 C 14,0 C 14,7 C 12,7 C 0,0 C 57 % 63 % 0 % 1014,4 hPa 0,0 l/m 1,1 km/h (1 Bft) S 180 0 min 0,0 UV-I 7,2 C 12,7 C 0,0 km/h (0 Bft)
23.04.2011 23:05 15,5 C 17,5 C 13,7 C 14,4 C 12,2 C 0,0 C 58 % 64 % 0 % 1014,4 hPa 0,0 l/m 0,2 km/h (0 Bft) SW 225 0 min 0,0 UV-I 7,3 C 12,2 C 0,0 km/h (0 Bft)
23.04.2011 23:10 15,2 C 17,4 C 13,6 C 14,1 C 11,8 C 0,0 C 58 % 65 % 0 % 1014,4 hPa 0,0 l/m 0,0 km/h (0 Bft) SW 225 0 min 0,0 UV-I 7,0 C 11,8 C 0,0 km/h (0 Bft)
23.04.2011 23:15 15,1 C 17,5 C 13,5 C 13,9 C 11,4 C 0,0 C 59 % 66 % 0 % 1014,1 hPa 0,0 l/m 0,0 km/h (0 Bft) SW 225 0 min 0,0 UV-I 7,1 C 11,4 C 0,0 km/h (0 Bft)
23.04.2011 23:20 15,0 C 17,5 C 13,2 C 13,7 C 11,2 C 0,0 C 60 % 66 % 0 % 1014,1 hPa 0,0 l/m 0,0 km/h (0 Bft) W-SW 247 0 min 0,0 UV-I 7,3 C 11,2 C 0,0 km/h (0 Bft)
23.04.2011 23:25 14,9 C 17,5 C 12,8 C 13,6 C 11,1 C 0,0 C 60 % 67 % 0 % 1014,1 hPa 0,0 l/m 0,0 km/h (0 Bft) N-NW 337 0 min 0,0 UV-I 7,2 C 11,1 C 0,0 km/h (0 Bft)
23.04.2011 23:30 14,8 C 17,5 C 12,8 C 13,6 C 11,1 C 0,0 C 60 % 67 % 0 % 1014,1 hPa 0,0 l/m 0,0 km/h (0 Bft) N-NW 337 0 min 0,0 UV-I 7,1 C 11,1 C 0,0 km/h (0 Bft)
23.04.2011 23:35 14,6 C 17,5 C 12,7 C 13,4 C 11,0 C 0,0 C 59 % 67 % 0 % 1014,4 hPa 0,0 l/m 0,0 km/h (0 Bft) N-NW 337 0 min 0,0 UV-I 6,7 C 11,0 C 0,0 km/h (0 Bft)
23.04.2011 23:40 14,4 C 17,4 C 12,7 C 13,3 C 11,1 C 0,0 C 59 % 67 % 0 % 1014,4 hPa 0,0 l/m 0,0 km/h (0 Bft) NO 45 0 min 0,0 UV-I 6,5 C 11,1 C 0,0 km/h (0 Bft)
23.04.2011 23:45 14,4 C 17,4 C 12,5 C 13,4 C 11,4 C 0,0 C 59 % 67 % 0 % 1014,4 hPa 0,0 l/m 0,2 km/h (0 Bft) O-NO 67 0 min 0,0 UV-I 6,5 C 11,4 C 0,0 km/h (0 Bft)
23.04.2011 23:50 14,3 C 17,4 C 12,4 C 13,4 C 11,5 C 0,0 C 59 % 68 % 0 % 1014,4 hPa 0,0 l/m 0,2 km/h (0 Bft) O-NO 67 0 min 0,0 UV-I 6,4 C 11,5 C 0,0 km/h (0 Bft)
23.04.2011 23:55 14,3 C 17,4 C 12,3 C 13,5 C 11,8 C 0,0 C 57 % 67 % 0 % 1014,4 hPa 0,0 l/m 0,3 km/h (0 Bft) O-NO 67 0 min 0,0 UV-I 5,9 C 11,8 C 0,0 km/h (0 Bft)
_ Min-Zeit 06:05 09:05 06:05 06:05 05:55 00:00 17:35 16:35 00:00 15:55 - 00:10 - - - 00:00 06:05 05:55 00:00
Minimum _ 8,4 C 15,1 C 6,8 C 7,3 C 5,0 C 0,0 C 34 % 36 % 0 % 1011,9 hPa - 0,0 km/h (0 Bft) - - - 0,0 UV-I 5,0 C 5,0 C 0,0 km/h (0 Bft)
_ Max-Zeit 16:15 18:50 16:30 14:10 14:10 09:15 06:00 05:25 08:25 22:55 00:00 17:10 - - 08:10 12:55 14:10 14:10 14:25
Maximum _ 23,9 C 17,9 C 24,9 C 26,9 C 26,9 C 6,4 C 79 % 86 % 100 % 1014,4 hPa 0,0 l/m 11,6 km/h
O-NO (2 Bft)
- - 5 min 2,5 UV-I 11,5 C 26,9 C 21,9 km/h
NO (4 Bft)
Durchschnitt _ 16,9 C 16,6 C 15,9 C 17,5 C 16,5 C 1,2 C 58 % 63 % 29 % 1012,8 hPa #0,0 l/m 3,4 km/h (1 Bft) O-NO - #3:05 h 1,1 UV-I 7,9 C 16,5 C 4,4 km/h (1 Bft)
2013 www.wetterstation-wechselburg.de